Find Starlink 31680

NORAD ID: 59380 Int'l Des: 2024-062 Owner: SPXS Country: US Constellation: starlink operational
LEOCIRCULAR

Live Position

Loading 3D Globe...

About Starlink 31680

Description loading...

Upcoming Passes

Passes for default location (London). Set your location on the main map for personalized predictions.

Altitude History

Loading altitude history...

Two-Line Element Set

1 59380U 24062G 26121.08566318 .00045484 00000-0 15215-2 0 9999
2 59380 53.1616 15.1182 0009760 48.7544 311.4296 15.30519039117619
Epoch: May 1, 2026 • Age: 11 hours

Current Status

Altitude 476.3 km
Velocity 7.64 km/s
Sub-Earth Point 50.74°N, 65.47°E
Launch Date Apr 2, 2024
Age 2 years
Type internet

Technical Details

Classification Payload
Mass 730.00 kg
Dry Mass 700.00 kg
Total Mass 730.00 kg
Length 0.30 m
Diameter 4.10 m
Span 29.00 m
Shape Box + pan
Manufacturer SPXS
Bus Type Starlink V2M
Phase Status In Orbit
Owner/State SPXS/US

Most Searched